This demonstration page uses our WeatherBlox Daily Observations layout. Learn more.

38.89511, -77.03637

Hourly Observations for September 9, 2015

Temp ( °F °C ) Dew Point ( °F °C ) Humidity (%) Winds ( mph kmh ) Pressure ( in mb ) Visibility ( mi km ) Precip ( " mm )
12:52 am 00:52 Clear 78 25.6 72 22.2 82 82 SSW 8 13 29.98 1015 10 16.0934 0 0
1:52 am 01:52 Partly Cloudy 77 25 72 22.2 85 85 S 7 11 29.97 1015 10 16.0934 0 0
2:52 am 02:52 Mostly Clear 77 25 73 22.8 88 88 S 12 19 29.96 1015 10 16.0934 0 0
3:52 am 03:52 Mostly Clear 76 24.4 73 22.8 91 91 SSW 8 13 29.96 1014 10 16.0934 0 0
4:52 am 04:52 Mostly Clear 75 23.9 73 22.8 94 94 S 7 11 29.95 1014 10 16.0934 0 0
5:52 am 05:52 Mostly Cloudy 76 24.4 73 22.8 91 91 S 8 13 29.96 1014 10 16.0934 0 0
6:22 am 06:22 Mostly Cloudy 75 24 73 23 94 94 S 7 11 29.97 1015 10 16.0934 0 0
6:37 am 06:37 Partly Cloudy 75 24 73 23 94 94 S 8 13 29.97 1015 10 16.0934 0 0
6:52 am 06:52 Mostly Cloudy 76 24.4 73 22.8 91 91 S 9 15 29.96 1014 10 16.0934 0 0
7:06 am 07:06 Mostly Cloudy 75 24 73 23 94 94 S 9 15 29.97 1015 10 16.0934 0 0
7:44 am 07:44 Mostly Cloudy 77 25 73 23 89 89 SSW 7 11 29.97 1015 10 16.0934 0 0
7:52 am 07:52 Mostly Cloudy 77 25 73 22.8 88 88 SSW 6 9 29.96 1015 10 16.0934 0 0
8:21 am 08:21 Mostly Cloudy 79 26 73 23 84 84 SSW 7 11 29.97 1015 10 16.0934 0 0
8:52 am 08:52 Mostly Cloudy 80 26.7 73 22.8 79 79 S 8 13 29.96 1015 10 16.0934 0 0
9:52 am 09:52 Mostly Cloudy 81 27.2 74 23.3 79 79 S 7 11 29.96 1015 10 16.0934 0 0
10:52 am 10:52 Partly Cloudy 84 28.9 74 23.3 72 72 SSE 7 11 29.95 1014 10 16.0934 0 0
11:52 am 11:52 Partly Cloudy 88 31.1 73 22.8 61 61 S 8 13 29.93 1013 10 16.0934 0 0
12:52 pm 12:52 Partly Cloudy 93 33.9 71 21.7 49 49 S 12 19 29.9 1013 10 16.0934 0 0
1:52 pm 13:52 Partly Cloudy 92 33.3 71 21.7 51 51 S 10 17 29.88 1012 10 16.0934 0 0
2:52 pm 14:52 Partly Cloudy 91 32.8 69 20.6 49 49 S 8 13 29.86 1011 10 16.0934 0 0
3:52 pm 15:52 Mostly Cloudy 94 34.4 68 20 43 43 SW 8 13 29.83 1010 10 16.0934 0 0
4:52 pm 16:52 Mostly Cloudy 92 33.3 68 20 46 46 SW 8 13 29.81 1010 10 16.0934 0 0
5:52 pm 17:52 Mostly Cloudy 91 32.8 68 20 47 47 SW 8 13 29.81 1010 10 16.0934 0 0
6:52 pm 18:52 Mostly Cloudy 87 30.6 68 20 53 53 SSW 12 19 29.81 1010 10 16.0934 0 0
7:52 pm 19:52 Mostly Cloudy 84 28.9 70 21.1 63 63 S 13 20 29.83 1010 10 16.0934 0 0
8:52 pm 20:52 Mostly Cloudy 82 27.8 71 21.7 69 69 S 12 19 29.85 1011 10 16.0934 0 0
9:33 pm 21:33 Mostly Cloudy with Light Rain 81 27 72 22 74 74 S 7 11 29.85 1011 10 16.0934 0 0.0254
9:52 pm 21:52 Mostly Cloudy 81 27.2 72 22.2 74 74 S 8 13 29.85 1011 10 16.0934 0 0.0254
10:52 pm 22:52 Mostly Cloudy 80 26.7 73 22.8 79 79 S 9 15 29.85 1011 10 16.0934 0 0
11:52 pm 23:52 Cloudy 79 26.1 72 22.2 79 79 SSW 7 11 29.85 1011 10 16.0934 0 0

Powered by AerisWeather